Bullhead City, AZ

4:34 PM MST on April 24, 2017 (GMT -0700)
Laughlin-Bullhead International

Weather History for KIFP - May, 2013

Change the Weather History Date:

Thursday, May 23, 2013

  Actual Average Record
Temperature  
Mean Temperature 81 °F -  
Max Temperature 93 °F 96 °F 111 °F (2000)
Min Temperature 69 °F 74 °F 60 °F (1991)
Cooling Degree Days 16    
Growing Degree Days 31 (Base 50)    
Moisture  
Dew Point 23 °F    
Average Humidity 13    
Maximum Humidity 25    
Minimum Humidity 5    
Precipitation  
Precipitation 0.00 in - - ()
Sea Level Pressure  
Sea Level Pressure 29.69 in    
Wind  
Wind Speed 10 mph (SSE)    
Max Wind Speed 24 mph    
Max Gust Speed 34 mph    
Visibility 10 miles    
Events      
Averages and records for this station are not official NWS values.
T = Trace of Precipitation, MM = Missing Value Source: NWS Daily Summary

Daily Weather History Graph

Daily Weather History Graph

Search for Another Location

Airport or City:

Trip Planner

Search our weather history database for the weather conditions in past years. The results will help you decide how hot, cold, wet, or windy it might be!

Date:

Astronomy

May. 23, 2013 Rise Set
Actual Time 5:28 AM MST 7:41 PM MST
Civil Twilight 5:00 AM MST 8:10 PM MST
Nautical Twilight 4:24 AM MST 8:45 PM MST
Astronomical Twilight 3:46 AM MST 9:23 PM MST
Moon 6:21 PM MST (5/23) 4:13 AM MST (5/23)
Length of Visible Light 15h 10m
Length of Day
14h 12m
Waxing Gibbous, 97% of the Moon is Illuminated
May 23
Waxing Gibbous
May 24
Full
May 31
Last Quarter
Jun 8
New
Jun 16
First Quarter

Hourly Weather History & Observations

Time (MST) Temp. Dew Point Humidity Pressure Visibility Wind Dir Wind Speed Gust Speed Precip Events Conditions
12:15 AM 80.6 °F 32.0 °F 17% 29.60 in 10.0 mi SE 3.5 mph - N/A   Clear
12:35 AM 80.6 °F 30.2 °F 16% 29.60 in 10.0 mi SSE 5.8 mph - N/A   Clear
12:55 AM 80.6 °F 32.0 °F 17% 29.61 in 10.0 mi SSW 8.1 mph - N/A   Clear
1:15 AM 78.8 °F 32.0 °F 18% 29.61 in 10.0 mi South 6.9 mph - N/A   Clear
1:35 AM 77.0 °F 33.8 °F 21% 29.62 in 10.0 mi SSE 9.2 mph - N/A   Clear
1:55 AM 77.0 °F 32.0 °F 19% 29.62 in 10.0 mi NE 11.5 mph - N/A   Clear
2:15 AM 77.0 °F 32.0 °F 19% 29.62 in 10.0 mi SE 11.5 mph - N/A   Clear
2:35 AM 75.2 °F 32.0 °F 21% 29.63 in 10.0 mi ESE 11.5 mph - N/A   Clear
2:55 AM 75.2 °F 32.0 °F 21% 29.64 in 10.0 mi NE 6.9 mph - N/A   Clear
3:15 AM 75.2 °F 32.0 °F 21% 29.64 in 10.0 mi East 8.1 mph - N/A   Clear
3:35 AM 75.2 °F 32.0 °F 21% 29.65 in 10.0 mi SE 8.1 mph - N/A   Clear
3:55 AM 75.2 °F 32.0 °F 21% 29.65 in 10.0 mi ESE 8.1 mph - N/A   Clear
4:15 AM 73.4 °F 32.0 °F 22% 29.66 in 10.0 mi East 6.9 mph - N/A   Clear
4:35 AM 71.6 °F 32.0 °F 23% 29.67 in 10.0 mi NNE 8.1 mph - N/A   Clear
4:55 AM 71.6 °F 32.0 °F 23% 29.67 in 10.0 mi ESE 8.1 mph - N/A   Clear
5:15 AM 71.6 °F 32.0 °F 23% 29.68 in 10.0 mi East 9.2 mph - N/A   Clear
5:35 AM 71.6 °F 32.0 °F 23% 29.69 in 10.0 mi ESE 8.1 mph - N/A   Clear
5:55 AM 69.8 °F 32.0 °F 25% 29.69 in 10.0 mi East 10.4 mph - N/A   Clear
6:15 AM 71.6 °F 30.2 °F 22% 29.70 in 10.0 mi SSE 6.9 mph - N/A   Clear
6:35 AM 71.6 °F 32.0 °F 23% 29.71 in 10.0 mi SE 9.2 mph - N/A   Clear
6:55 AM 71.6 °F 32.0 °F 23% 29.71 in 10.0 mi SE 9.2 mph - N/A   Clear
7:15 AM 73.4 °F 32.0 °F 22% 29.72 in 10.0 mi ESE 8.1 mph - N/A   Clear
7:35 AM 73.4 °F 30.2 °F 20% 29.73 in 10.0 mi SE 4.6 mph - N/A   Clear
7:55 AM 75.2 °F 28.4 °F 18% 29.74 in 10.0 mi South 5.8 mph - N/A   Clear
8:15 AM 75.2 °F 28.4 °F 18% 29.74 in 10.0 mi South 4.6 mph - N/A   Clear
8:35 AM 75.2 °F 28.4 °F 18% 29.75 in 10.0 mi SSW 6.9 mph - N/A   Clear
8:55 AM 77.0 °F 28.4 °F 17% 29.75 in 10.0 mi South 11.5 mph - N/A   Clear
9:15 AM 78.8 °F 26.6 °F 15% 29.75 in 10.0 mi South 11.5 mph - N/A   Clear
9:35 AM 80.6 °F 26.6 °F 14% 29.75 in 10.0 mi SSW 12.7 mph 18.4 mph N/A   Clear
9:55 AM 80.6 °F 26.6 °F 14% 29.75 in 10.0 mi SSW 8.1 mph - N/A   Clear
10:15 AM 82.4 °F 26.6 °F 13% 29.74 in 10.0 mi SW 11.5 mph 16.1 mph N/A   Clear
10:35 AM 82.4 °F 28.4 °F 14% 29.74 in 10.0 mi SSW 15.0 mph 19.6 mph N/A   Clear
10:55 AM 84.2 °F 26.6 °F 12% 29.74 in 10.0 mi SW 16.1 mph 25.3 mph N/A   Clear
11:15 AM 84.2 °F 26.6 °F 12% 29.74 in 10.0 mi SSW 13.8 mph 21.9 mph N/A   Clear
11:35 AM 86.0 °F 24.8 °F 11% 29.73 in 10.0 mi SSW 15.0 mph 23.0 mph N/A   Clear
11:55 AM 86.0 °F 23.0 °F 10% 29.73 in 10.0 mi SSW 12.7 mph 20.7 mph N/A   Clear
12:15 PM 86.0 °F 24.8 °F 11% 29.72 in 10.0 mi SSE 10.4 mph 19.6 mph N/A   Clear
12:35 PM 89.6 °F 23.0 °F 9% 29.71 in 10.0 mi SE 15.0 mph 23.0 mph N/A   Clear
12:55 PM 87.8 °F 24.8 °F 10% 29.71 in 10.0 mi SSW 18.4 mph 24.2 mph N/A   Clear
1:15 PM 89.6 °F 19.4 °F 8% 29.70 in 10.0 mi South 13.8 mph 21.9 mph N/A   Clear
1:35 PM 91.4 °F 17.6 °F 7% 29.70 in 10.0 mi SE 17.3 mph 21.9 mph N/A   Clear
1:55 PM 89.6 °F 17.6 °F 7% 29.69 in 10.0 mi South 19.6 mph 28.8 mph N/A   Clear
2:15 PM 91.4 °F 19.4 °F 7% 29.69 in 10.0 mi South 13.8 mph 25.3 mph N/A   Clear
2:35 PM 91.4 °F 23.0 °F 8% 29.68 in 10.0 mi SSE 19.6 mph 28.8 mph N/A   Clear
2:55 PM 91.4 °F 23.0 °F 8% 29.68 in 10.0 mi SSE 20.7 mph 28.8 mph N/A   Clear
3:15 PM 91.4 °F 21.2 °F 8% 29.67 in 10.0 mi SSE 13.8 mph 27.6 mph N/A   Clear
3:35 PM 91.4 °F 17.6 °F 7% 29.67 in 10.0 mi SSE 17.3 mph 28.8 mph N/A   Clear
3:55 PM 91.4 °F 14.0 °F 6% 29.67 in 10.0 mi South 24.2 mph 34.5 mph N/A   Clear
4:15 PM 93.2 °F 15.8 °F 6% 29.66 in 10.0 mi South 19.6 mph 31.1 mph N/A   Clear
4:35 PM 91.4 °F 19.4 °F 7% 29.66 in 10.0 mi SSW 17.3 mph 28.8 mph N/A   Clear
4:55 PM 91.4 °F 21.2 °F 8% 29.66 in 10.0 mi SSE 23.0 mph 27.6 mph N/A   Clear
5:15 PM 93.2 °F 23.0 °F 8% 29.66 in 10.0 mi SW 19.6 mph 25.3 mph N/A   Clear
5:35 PM 91.4 °F 19.4 °F 7% 29.66 in 10.0 mi South 13.8 mph - N/A   Clear
5:55 PM 93.2 °F 19.4 °F 7% 29.65 in 10.0 mi SSW 11.5 mph 23.0 mph N/A   Clear
6:15 PM 91.4 °F 19.4 °F 7% 29.65 in 10.0 mi SSW 13.8 mph - N/A   Clear
6:35 PM 91.4 °F 17.6 °F 7% 29.65 in 10.0 mi SSW 11.5 mph 21.9 mph N/A   Clear
6:55 PM 91.4 °F 17.6 °F 7% 29.65 in 10.0 mi SSW 10.4 mph - N/A   Clear
7:15 PM 91.4 °F 15.8 °F 6% 29.66 in 10.0 mi SSW 10.4 mph 16.1 mph N/A   Clear
7:35 PM 89.6 °F 10.4 °F 5% 29.66 in 10.0 mi South 12.7 mph 20.7 mph N/A   Clear
7:55 PM 89.6 °F 8.6 °F 5% 29.66 in 10.0 mi South 17.3 mph - N/A   Clear
8:15 PM 89.6 °F 8.6 °F 5% 29.67 in 10.0 mi SSE 18.4 mph - N/A   Clear
8:35 PM 86.0 °F 8.6 °F 5% 29.68 in 10.0 mi SSE 15.0 mph - N/A   Clear
8:55 PM 86.0 °F 10.4 °F 6% 29.68 in 10.0 mi SSE 20.7 mph - N/A   Clear
9:15 PM 86.0 °F 10.4 °F 6% 29.70 in 10.0 mi SSE 16.1 mph - N/A   Clear
9:35 PM 86.0 °F 10.4 °F 6% 29.71 in 10.0 mi SSE 16.1 mph - N/A   Clear
9:55 PM 84.2 °F 10.4 °F 6% 29.72 in 10.0 mi SSE 13.8 mph - N/A   Clear
10:15 PM 84.2 °F 14.0 °F 7% 29.72 in 10.0 mi SSE 16.1 mph - N/A   Clear
10:35 PM 84.2 °F 14.0 °F 7% 29.73 in 10.0 mi SSE 15.0 mph - N/A   Clear
10:55 PM 84.2 °F 14.0 °F 7% 29.74 in 10.0 mi SSE 13.8 mph - N/A   Clear
11:15 PM 82.4 °F 15.8 °F 8% 29.75 in 10.0 mi SW 3.5 mph - N/A   Clear
11:35 PM 80.6 °F 17.6 °F 10% 29.75 in 10.0 mi SSW 5.8 mph - N/A   Clear
11:55 PM 78.8 °F 17.6 °F 10% 29.75 in 10.0 mi SSW 8.1 mph - N/A   Clear